Waarnemingen

Advertentie
Mijn weer
Lanveoc Poulmic, Frankrijk (7109): temperatuur & dauwpunt: 13.07.2018 06:00:00 - 19.07.2018 06:00:00 (CEST)Lanveoc Poulmic, Frankrijk (7109): windsnelheid & windstoten: 13.07.2018 06:00:00 - 19.07.2018 06:00:00 (CEST)Lanveoc Poulmic, Frankrijk (7109): windrichting: 13.07.2018 06:00:00 - 19.07.2018 06:00:00 (CEST)Lanveoc Poulmic, Frankrijk (7109): luchtdruk: 13.07.2018 06:00:00 - 19.07.2018 06:00:00 (CEST)Lanveoc Poulmic, Frankrijk (7109): zicht: 13.07.2018 06:00:00 - 19.07.2018 06:00:00 (CEST)Lanveoc Poulmic, Frankrijk (7109): neerslag: 13.07.2018 06:00:00 - 19.07.2018 06:00:00 (CEST)
Datum & Tijd tt [°C] td [°C] ff [km/u] ff [kn] fx [km/u] fx [kn] dd ppp [hPa] vv [km] rr [mm]
19.07.2018 06:00:00 - - - - - - - - - -
19.07.2018 05:00:00 14,7 13,1 5 3 16 9 - 1019,2 10 -
19.07.2018 04:00:00 14,7 13,1 9 5 15 8 NO 1019,1 10 0,0
19.07.2018 03:00:00 15,2 13,2 9 5 18 10 NO 1019,6 10 0,0
19.07.2018 02:00:00 15,4 13,6 11 6 16 9 NO 1019,9 11 -
19.07.2018 01:00:00 15,7 14,4 11 6 21 11 NO 1019,9 10 0,0
19.07.2018 00:00:00 15,6 14,0 11 6 22 12 NNO 1019,7 10 0,0
18.07.2018 23:00:00 16,2 13,1 13 7 24 13 NNO 1019,7 25 -
18.07.2018 22:00:00 17,2 13,1 15 8 21 11 N 1019,3 10 0,0
18.07.2018 21:00:00 18,8 11,8 15 8 29 16 NNO 1018,9 10 0,0
18.07.2018 20:00:00 20,5 11,9 15 8 26 14 N 1018,6 10 -
18.07.2018 19:00:00 21,5 12,1 18 10 29 16 N 1018,7 35 0,0
18.07.2018 18:00:00 21,6 11,9 15 8 29 16 N 1018,7 10 0,0
18.07.2018 17:00:00 20,9 11,8 15 8 29 16 NNW 1018,5 35 -
18.07.2018 16:00:00 22,2 13,5 22 12 31 17 WNW 1018,5 10 0,0
18.07.2018 15:00:00 21,3 12,7 22 12 34 18 WNW 1018,5 10 0,0
18.07.2018 14:00:00 21,5 11,8 11 6 22 12 NNW 1018,8 19 -
18.07.2018 13:00:00 21,3 10,7 5 3 15 8 - 1019,0 10 0,0
18.07.2018 12:00:00 20,4 8,4 8 4 15 8 NNO 1019,0 10 0,0
18.07.2018 11:00:00 20,9 10,1 5 3 15 8 N 1019,1 45 -
18.07.2018 10:00:00 19,0 12,7 5 3 9 5 - 1019,4 10 0,0
18.07.2018 09:00:00 16,6 13,5 5 3 8 4 OZO 1019,4 10 0,0
18.07.2018 08:00:00 14,2 12,9 4 2 8 4 O 1019,3 28 -
18.07.2018 07:00:00 13,6 12,7 4 2 8 4 O 1019,3 10 0,0
18.07.2018 06:00:00 13,1 12,5 4 2 5 3 - 1019,3 10 0,0
18.07.2018 05:00:00 13,0 12,5 4 2 9 5 O 1019,2 35 -
18.07.2018 04:00:00 12,6 12,0 2 1 5 3 ZO 1019,4 10 0,0
18.07.2018 03:00:00 12,8 12,0 0 0 5 3 N 1019,4 10 0,0
18.07.2018 02:00:00 13,6 11,8 5 3 9 5 W 1019,6 40 -
18.07.2018 01:00:00 15,5 12,8 8 4 11 6 W 1019,8 10 0,0
18.07.2018 00:00:00 14,5 12,5 4 2 8 4 - 1019,9 10 0,0
17.07.2018 23:00:00 15,0 11,9 5 3 8 4 WZW 1020,0 19 -
17.07.2018 22:00:00 16,4 12,0 5 3 16 9 WZW 1019,5 10 0,0
17.07.2018 21:00:00 18,0 11,3 13 7 22 12 W 1019,4 10 0,0
17.07.2018 20:00:00 19,0 10,8 15 8 24 13 W 1019,3 35 -
17.07.2018 19:00:00 19,9 10,0 16 9 29 16 W 1019,3 10 0,0
17.07.2018 18:00:00 20,1 9,9 18 10 29 16 WZW 1019,3 10 0,0
17.07.2018 17:00:00 20,7 8,0 18 10 28 15 ZW 1019,4 10 -
17.07.2018 16:00:00 21,4 9,3 16 9 28 15 WNW 1019,6 10 0,0
17.07.2018 15:00:00 19,7 12,0 18 10 29 16 W 1019,7 10 0,0
17.07.2018 14:00:00 21,6 10,1 16 9 28 15 WNW 1019,8 19 -
17.07.2018 13:00:00 20,4 10,8 18 10 29 16 WNW 1019,9 10 0,0
17.07.2018 12:00:00 19,0 12,0 18 10 29 16 WNW 1019,9 10 0,0
17.07.2018 11:00:00 18,9 13,3 16 9 24 13 WZW 1019,9 10 -
17.07.2018 10:00:00 17,7 13,8 13 7 18 10 WZW 1019,5 10 0,0
17.07.2018 09:00:00 16,3 13,6 8 4 24 13 W 1019,4 10 0,0
17.07.2018 08:00:00 16,5 13,6 11 6 18 10 W 1019,2 45 -
17.07.2018 07:00:00 16,0 13,7 13 7 18 10 W 1019,0 10 0,0
17.07.2018 06:00:00 15,7 14,2 8 4 11 6 WZW 1018,8 10 0,0
17.07.2018 05:00:00 15,7 13,9 9 5 13 7 ZW 1018,9 10 -
17.07.2018 04:00:00 15,9 13,7 9 5 11 6 WZW 1018,9 10 0,0
17.07.2018 03:00:00 15,8 13,5 9 5 11 6 WZW 1019,1 10 0,0
17.07.2018 02:00:00 15,2 13,2 9 5 11 6 W 1019,3 27 -
17.07.2018 01:00:00 16,3 13,8 8 4 13 7 WZW 1019,3 10 0,0
17.07.2018 00:00:00 16,4 14,1 11 6 16 9 W 1019,2 10 0,0
16.07.2018 23:00:00 16,3 13,8 9 5 15 8 W 1019,0 27 -
16.07.2018 22:00:00 17,1 13,2 11 6 18 10 W 1018,4 10 0,0
16.07.2018 21:00:00 17,7 14,0 13 7 26 14 WNW 1018,0 10 0,0
16.07.2018 20:00:00 18,6 13,7 16 9 28 15 WNW 1017,5 10 -
16.07.2018 19:00:00 19,3 14,1 18 10 28 15 NW 1017,1 10 0,0
16.07.2018 18:00:00 21,2 15,3 18 10 28 15 NW 1016,8 10 0,0
16.07.2018 17:00:00 21,6 15,4 16 9 29 16 WNW 1016,6 35 -
16.07.2018 16:00:00 20,5 15,7 22 12 31 17 WNW 1016,6 10 0,0
16.07.2018 15:00:00 21,2 15,1 21 11 29 16 WNW 1016,8 50 0,0
16.07.2018 14:00:00 20,6 16,0 18 10 26 14 WNW 1016,8 10 -
16.07.2018 13:00:00 21,0 16,2 16 9 24 13 WNW 1016,7 10 0,0
16.07.2018 12:00:00 20,7 16,1 15 8 22 12 WNW 1016,6 10 0,0
16.07.2018 11:00:00 19,5 16,3 16 9 24 13 WNW 1016,5 19 -
16.07.2018 10:00:00 19,3 16,3 15 8 22 12 WNW 1016,3 10 0,0
16.07.2018 09:00:00 18,2 16,2 9 5 18 10 WNW 1016,2 8 0,0
16.07.2018 08:00:00 17,3 16,3 8 4 13 7 W 1015,9 4,3 -
16.07.2018 07:00:00 16,4 14,2 8 4 13 7 WNW 1015,9 10 0,0
16.07.2018 06:00:00 14,4 11,7 5 3 9 5 W 1015,9 10 0,0
16.07.2018 05:00:00 14,4 10,6 5 3 9 5 W 1016,1 40 -
16.07.2018 04:00:00 14,5 9,9 4 2 13 7 WNW 1016,2 40 0,0
16.07.2018 03:00:00 15,8 11,0 13 7 16 9 WNW 1016,4 10 0,0
16.07.2018 02:00:00 16,6 11,5 11 6 13 7 W 1016,4 28 -
16.07.2018 01:00:00 17,6 12,1 5 3 8 4 W 1016,4 10 0,0
16.07.2018 00:00:00 18,9 10,7 5 3 13 7 NO 1016,6 10 0,0
15.07.2018 23:00:00 18,1 10,5 8 4 16 9 N 1016,5 50 -
15.07.2018 22:00:00 21,1 8,7 11 6 13 7 WNW 1015,9 10 0,0
15.07.2018 21:00:00 24,7 9,0 11 6 15 8 W 1015,6 45 0,0
15.07.2018 20:00:00 25,4 9,6 11 6 18 10 WNW 1015,2 45 -
15.07.2018 19:00:00 26,1 10,3 15 8 22 12 WNW 1015,5 10 0,0
15.07.2018 18:00:00 26,5 11,4 13 7 21 11 WNW 1015,8 10 0,0
15.07.2018 17:00:00 26,6 10,7 13 7 21 11 WNW 1016,1 19 -
15.07.2018 16:00:00 25,7 9,9 16 9 22 12 WNW 1016,3 10 0,0
15.07.2018 15:00:00 25,8 10,8 13 7 21 11 NW 1016,4 10 0,0
15.07.2018 14:00:00 25,6 10,2 9 5 16 9 NNW 1016,6 35 -
15.07.2018 13:00:00 24,4 7,9 9 5 13 7 N 1017,0 10 0,0
15.07.2018 12:00:00 24,2 13,7 8 4 13 7 NNO 1017,2 10 0,0
15.07.2018 11:00:00 21,8 13,4 5 3 13 7 ONO 1017,3 35 -
15.07.2018 10:00:00 19,5 13,9 5 3 11 6 O 1017,6 10 0,0
15.07.2018 09:00:00 17,7 13,0 9 5 15 8 ONO 1017,8 10 0,0
15.07.2018 08:00:00 17,1 12,2 8 4 18 10 O 1017,9 28 -
15.07.2018 07:00:00 13,6 11,3 8 4 15 8 OZO 1018,0 10 0,0
15.07.2018 06:00:00 13,0 11,2 5 3 9 5 - 1017,8 10 0,0
15.07.2018 05:00:00 13,9 12,1 8 4 13 7 NO 1017,8 16 -
15.07.2018 04:00:00 15,2 12,9 11 6 21 11 ONO 1018,0 10 0,0
15.07.2018 03:00:00 15,8 12,5 15 8 18 10 NO 1018,3 16 0,0
15.07.2018 02:00:00 16,2 13,1 15 8 22 12 NO 1018,8 15 -
15.07.2018 01:00:00 16,8 12,9 11 6 18 10 ONO 1019,0 20 0,0
15.07.2018 00:00:00 16,8 12,5 9 5 21 11 NO 1019,1 10 0,0
14.07.2018 23:00:00 18,2 11,3 13 7 21 11 NO 1019,2 40 -
14.07.2018 22:00:00 19,2 11,7 13 7 26 14 NO 1019,0 10 0,0
14.07.2018 21:00:00 21,1 12,0 15 8 24 13 NO 1018,9 10 0,0
14.07.2018 20:00:00 22,7 12,9 13 7 26 14 NNO 1018,8 35 -
14.07.2018 19:00:00 24,0 14,4 16 9 26 14 NNO 1019,0 10 0,0
14.07.2018 18:00:00 25,1 13,9 15 8 24 13 NNO 1019,0 10 0,0
14.07.2018 17:00:00 26,1 13,6 13 7 21 11 NNO 1019,1 40 -
14.07.2018 16:00:00 25,6 12,1 13 7 18 10 NNO 1019,5 10 0,0
14.07.2018 15:00:00 25,3 12,2 11 6 21 11 NO 1020,1 10 0,0
14.07.2018 14:00:00 25,0 13,5 9 5 18 10 N 1020,5 27 -
14.07.2018 13:00:00 24,3 12,6 11 6 21 11 NNO 1020,5 10 0,0
14.07.2018 12:00:00 23,3 13,7 13 7 18 10 NNO 1020,9 10 0,0
14.07.2018 11:00:00 21,7 14,1 11 6 16 9 O 1021,1 11 -
14.07.2018 10:00:00 19,4 15,3 9 5 18 10 ONO 1021,5 6 0,0
14.07.2018 09:00:00 17,7 15,3 11 6 18 10 ONO 1021,5 4,4 0,0
14.07.2018 08:00:00 16,6 15,0 9 5 16 9 NO 1021,4 5 -
14.07.2018 07:00:00 15,4 14,3 9 5 15 8 O 1021,1 5 0,2
14.07.2018 06:00:00 15,0 14,0 9 5 16 9 ONO 1021,0 4,9 0,0
14.07.2018 05:00:00 15,2 14,4 9 5 18 10 O 1021,1 2,6 -
14.07.2018 04:00:00 15,6 15,0 11 6 18 10 NO 1021,3 2,0 0,0
14.07.2018 03:00:00 15,7 14,7 11 6 18 10 NO 1021,8 5 0,0
14.07.2018 02:00:00 15,8 14,7 11 6 22 12 NO 1022,4 3,8 -
14.07.2018 01:00:00 16,3 14,5 13 7 21 11 ONO 1022,5 7 0,0
14.07.2018 00:00:00 16,3 14,0 13 7 22 12 NO 1022,6 10 0,0
13.07.2018 23:00:00 17,3 13,8 13 7 21 11 NO 1022,3 14 -
13.07.2018 22:00:00 18,9 13,3 13 7 22 12 NNO 1021,4 10 0,0
13.07.2018 21:00:00 20,7 13,4 15 8 26 14 NNO 1020,8 10 0,0
13.07.2018 20:00:00 22,1 12,9 18 10 28 15 NNO 1020,7 35 -
13.07.2018 19:00:00 23,4 14,1 18 10 28 15 N 1020,6 10 0,0
13.07.2018 18:00:00 24,5 14,0 18 10 28 15 N 1020,8 10 0,0
13.07.2018 17:00:00 24,9 14,1 16 9 28 15 N 1020,9 10 -
13.07.2018 16:00:00 24,7 13,9 11 6 18 10 NW 1021,2 10 0,0
13.07.2018 15:00:00 25,1 13,3 8 4 15 8 NO 1021,5 10 0,0
13.07.2018 14:00:00 24,0 12,9 9 5 18 10 NNO 1021,6 35 -
13.07.2018 13:00:00 23,4 13,3 8 4 16 9 NNO 1021,8 10 0,0
13.07.2018 12:00:00 22,0 14,4 8 4 15 8 NNO 1021,7 10 0,0
13.07.2018 11:00:00 20,8 14,0 9 5 15 8 N 1021,7 19 -
13.07.2018 10:00:00 20,1 13,5 5 3 13 7 NNO 1022,0 10 0,0
13.07.2018 09:00:00 18,2 13,5 8 4 9 5 NO 1021,9 10 0,0
13.07.2018 08:00:00 16,3 13,8 5 3 9 5 - 1021,8 10 -
13.07.2018 07:00:00 13,9 13,3 8 4 11 6 NO 1021,7 9 0,0
13.07.2018 06:00:00 13,5 12,2 8 4 9 5 NO 1021,9 8 0,0

tt = temperatuur
td = dauwpunt
ff = windsnelheid
fx = windstoten
dd = windrichting
ppp = luchtdruk
vv = zicht
rr = neerslag

Weerstations in de omgeving